Vorticity
nan nan nan nan nan nan nan nan nan nan nan nan nan nan nan nan nan nan nan nan nan nan nan nan nan nan nan nan nan nan nan nan nan nan nan nan nan nan nan nan nan nan nan nan nan nan nan nan nan
nan 9 6 7 12 12 3 5 4 3 7 9 9 5 5 5 10 12 8 8 9 6 5 6 4 5 6 7 6 7 7 6 6 6 6 6 6 5 4 4 4 5 5 4 5 5 5 5 nan
nan 8 8 6 12 11 4 -0 2 7 12 8 1 5 9 5 4 5 11 13 8 6 5 5 6 5 6 7 5 7 6 6 6 6 6 6 6 5 4 5 5 5 5 4 5 6 5 5 nan
nan 8 6 8 10 4 4 5 9 9 10 8 4 10 4 5 8 12 12 11 11 6 7 3 6 7 5 5 5 5 5 6 6 5 6 6 6 5 5 5 5 5 6 5 6 5 5 6 nan
nan 6 6 9 4 2 7 10 10 10 9 9 8 3 5 8 10 10 10 12 10 6 6 5 4 7 7 6 6 6 6 5 6 5 6 6 6 6 5 5 5 5 6 6 6 6 6 5 nan
nan 7 12 4 1 4 4 8 13 10 7 9 10 3 6 7 5 7 10 9 9 8 4 4 4 6 6 6 6 5 6 7 6 6 6 6 6 6 5 5 5 5 5 6 5 6 6 6 nan
nan 9 10 6 1 2 3 6 9 10 11 6 7 7 6 7 6 9 8 8 8 7 7 6 5 3 4 6 6 6 7 6 6 6 6 6 6 6 6 6 5 6 5 6 6 5 6 6 nan
nan 14 8 6 3 -0 4 8 8 10 9 5 8 11 7 8 6 7 6 6 6 7 9 8 7 6 5 3 5 8 7 8 8 6 6 6 5 7 8 8 9 6 6 6 6 5 6 7 nan
nan 11 10 8 5 -2 2 5 8 10 7 6 6 7 13 11 4 4 5 5 4 6 8 9 9 8 7 5 7 5 6 6 7 6 6 5 6 8 4 6 8 6 6 6 6 6 6 7 nan
nan 7 5 6 8 3 3 3 5 10 9 7 6 9 12 6 3 2 3 4 5 2 4 8 10 12 10 9 9 8 8 7 6 9 5 5 8 6 4 9 7 7 8 6 8 8 7 4 nan
nan 7 5 4 3 5 5 7 4 8 4 2 6 9 11 6 4 4 6 6 5 4 5 6 7 10 11 9 6 8 8 10 8 9 14 14 10 11 12 9 10 10 8 8 9 8 7 6 nan
nan 7 4 3 3 2 3 5 6 5 2 3 5 13 14 7 7 7 8 8 6 6 6 7 7 7 8 9 9 9 9 8 7 7 11 12 10 8 9 9 8 9 8 11 12 10 7 7 nan
nan 5 5 5 2 3 9 5 9 10 10 6 8 14 10 9 8 8 7 8 8 6 7 8 9 8 8 9 10 8 8 8 7 6 7 10 11 9 7 7 7 7 8 9 9 7 9 12 nan
nan 4 5 10 12 14 10 11 16 11 12 12 10 12 10 10 8 7 7 6 7 8 8 9 9 10 8 8 9 7 7 7 8 7 5 9 10 7 7 8 7 7 7 6 7 8 10 8 nan
nan 7 11 15 15 15 13 16 1 8 15 15 13 11 10 10 9 8 8 9 7 8 7 7 8 10 9 8 5 7 7 7 7 6 7 7 7 8 8 8 7 8 7 8 8 7 8 9 nan
nan 10 13 9 7 8 8 9 8 7 11 13 11 9 8 8 8 10 9 9 8 8 7 8 8 7 8 7 7 8 8 6 6 6 4 5 7 9 9 8 7 7 8 8 8 8 8 9 nan
nan 4 12 6 7 3 6 4 7 5 8 12 11 8 8 7 7 7 8 8 9 8 7 6 7 7 6 6 7 6 7 8 6 6 5 6 7 8 9 8 7 7 9 8 8 8 8 8 nan
nan 11 5 4 4 3 9 8 6 9 8 11 12 10 8 6 7 7 8 7 7 7 6 5 5 5 5 5 5 5 6 5 6 7 7 7 8 8 10 9 7 9 9 8 7 8 9 9 nan
nan 7 4 6 7 8 10 6 8 11 15 14 12 9 8 8 6 6 6 7 6 6 6 4 5 5 5 7 7 6 6 6 6 5 6 8 8 9 10 10 8 9 8 8 9 9 10 10 nan
nan 5 8 10 8 4 5 5 11 11 11 11 15 14 10 8 5 5 6 5 6 6 6 6 5 6 7 8 7 7 7 7 6 7 6 6 8 9 10 10 9 9 10 10 10 10 10 11 nan
nan 6 5 6 7 10 11 12 8 6 9 9 10 13 15 10 7 6 5 4 5 6 6 6 5 5 8 9 7 9 8 6 6 7 7 6 7 7 8 9 9 9 9 9 10 11 8 8 nan
nan 14 8 9 6 9 7 13 11 7 5 8 11 12 11 11 10 8 7 6 5 6 6 6 6 6 6 6 7 7 7 6 7 7 7 8 8 6 6 6 8 8 9 8 8 8 9 9 nan
nan 6 11 12 8 11 4 4 9 9 2 4 7 10 11 12 12 9 9 8 7 6 6 6 5 5 4 5 7 6 6 6 8 7 4 8 9 8 7 7 7 8 8 8 8 8 8 9 nan
nan 4 10 9 12 11 16 6 7 16 10 4 6 11 13 12 9 10 11 10 8 6 6 7 4 4 6 6 7 8 5 5 5 7 8 8 8 9 8 7 7 8 8 8 8 9 8 8 nan
nan 8 9 10 7 4 17 15 14 13 12 5 5 8 14 12 10 11 11 10 9 7 5 4 5 7 7 7 6 5 6 6 5 7 8 8 9 9 8 7 8 8 7 7 7 9 10 9 nan
nan 12 11 6 7 15 7 9 9 9 8 2 4 6 6 10 15 12 12 12 11 8 7 6 6 7 8 6 5 5 4 4 6 6 8 10 8 8 9 8 7 6 5 6 7 9 9 9 nan
nan 9 8 17 13 9 5 11 7 8 4 6 7 4 3 7 11 15 15 15 15 12 9 7 7 8 7 3 5 9 8 5 6 8 8 7 8 8 8 8 8 8 7 7 7 8 8 8 nan
nan 14 12 11 9 12 15 8 17 10 8 6 4 1 4 10 12 14 15 17 17 14 11 10 9 10 5 3 5 9 8 8 7 8 8 7 8 8 9 9 9 8 8 8 8 7 8 7 nan
nan 7 8 9 11 13 11 7 8 8 12 11 3 4 10 11 12 14 18 20 19 17 13 11 11 7 3 6 7 8 8 8 7 7 7 8 8 9 9 9 9 9 9 8 8 7 8 8 nan
nan nan nan nan nan nan nan nan nan nan nan nan nan nan nan nan nan nan nan nan nan nan nan nan nan nan nan nan nan nan nan nan nan nan nan nan nan nan nan nan nan nan nan nan nan nan nan nan nan
CAPE
0 0 0 0 0 0 0 0 0 0 0 2 233 233 343 484 373 602 1957 1940 1791 2340 2282 2177 2112 2189 2165 2251 2571 2875 3126 3186 3071 2948 2809 2840 2980 3070 3177 3245 3293 3374 2994 2669 2250 2076 2058 2067 2171
0 0 0 0 0 0 0 0 0 0 0 105 207 454 402 996 1464 2450 1533 1861 1877 2320 2154 1964 1929 2135 2167 2093 2382 2793 3079 3089 3060 3038 2976 2969 3041 3084 3130 3144 3081 3275 2858 2602 2075 1811 1762 1882 2088
0 0 0 0 0 0 0 0 0 0 0 31 387 656 390 876 1514 1924 2387 1837 1801 2267 2036 2429 1893 1973 2112 2112 2286 2411 2563 2665 2751 2857 2954 2881 2894 2789 2956 2889 2860 3134 2738 2404 1850 1633 1680 1794 1854
0 0 0 0 0 0 0 0 0 0 4 69 407 650 906 2262 2022 2498 2434 2327 1893 2166 2155 1795 1815 1814 2048 2204 2271 2118 2040 2044 2277 2575 2842 2743 2593 2634 2783 2585 2683 2850 2673 2407 2066 1699 1568 1436 1436
0 0 0 0 0 0 0 0 0 0 62 348 512 836 1064 2138 2293 2345 2539 2349 1951 2253 2600 2355 1754 1824 2079 2335 2220 1977 1802 1822 2070 2379 2568 2734 2788 2740 2424 2274 2440 2713 2765 2640 2516 1918 1281 1169 1202
0 0 0 0 0 0 0 0 0 0 108 563 420 626 1339 2175 1680 2051 2232 2395 2445 2686 2771 2497 1848 1846 1972 2110 1926 1615 1601 1715 1884 2026 2160 2390 2418 2250 2123 2106 2273 2502 2666 2783 2774 2067 1224 894 909
0 0 0 0 0 0 0 0 0 0 204 511 909 534 1813 2083 2063 1992 2285 2506 2605 2781 2899 2989 2817 2329 1756 1709 1670 1537 1497 1550 1687 1815 1864 1974 1873 1793 1841 1857 1985 2227 2373 2487 2580 2323 1472 939 702
0 0 0 0 0 0 0 0 0 0 0 150 171 568 1158 2319 2431 1910 2152 2476 2693 2765 2980 3096 3106 2875 2956 2739 1473 1517 1587 1588 1584 1600 1618 1665 1767 1815 1781 1754 1730 2007 2205 2316 2350 2281 2054 1346 776
0 0 0 0 0 0 0 0 0 0 0 40 140 399 1259 2841 2653 2070 1993 2024 2288 2341 2557 2773 2948 3078 3199 3085 2220 1691 1622 1615 1637 1824 1733 1593 2585 2610 2471 1875 1733 1681 1710 1872 2030 2062 2033 1874 1351
0 0 0 0 0 0 0 0 0 0 0 0 0 159 2074 2950 2780 2572 2247 2122 2175 2246 1489 1527 1841 2244 2218 2068 2253 2412 2438 2642 2719 2717 2568 2674 2886 2924 2445 2030 1459 1587 1525 1419 1339 1475 1749 1820 1771
0 0 0 0 0 0 0 0 0 0 0 0 0 29 1512 2768 2928 2875 2658 2621 2636 2156 1562 1403 1757 1857 1785 1639 1847 1816 891 597 468 880 1769 2505 2521 2559 2352 2413 2005 2272 1507 2293 1861 2034 2156 1792 1963
0 0 0 0 0 0 0 0 0 0 0 0 0 0 848 2205 2640 2834 2481 2056 2043 1938 1541 1334 1248 1133 588 446 287 68 1 0 2 2 29 418 1057 1336 910 1004 1097 1370 1536 2207 2315 2111 2324 2427 2467
0 0 0 0 0 0 0 0 0 0 0 0 0 58 655 1784 2289 2248 1774 1214 1231 1079 770 702 573 310 37 3 5 2 0 0 0 0 0 0 62 196 361 282 349 154 210 363 874 1191 1784 2165 2305
0 0 0 0 0 0 0 0 0 0 0 0 0 39 650 1762 1726 839 449 398 280 204 142 102 125 180 26 0 0 0 0 0 0 0 0 0 0 0 0 0 0 0 0 0 0 22 165 800 1127
0 0 0 0 0 0 0 0 0 0 0 0 0 174 596 1141 514 437 145 11 3 0 0 0 0 0 0 0 0 0 0 0 0 0 0 0 0 0 0 0 0 0 0 0 0 0 0 0 7
0 0 0 0 0 0 0 0 0 0 0 0 13 66 121 76 47 0 0 0 0 0 0 0 0 0 0 0 0 0 0 0 0 0 0 0 0 0 0 0 0 0 0 0 0 0 0 0 0
0 0 0 0 0 0 0 0 0 0 0 0 0 0 7 0 0 0 0 0 0 0 0 0 0 0 0 0 0 0 0 0 0 0 0 0 0 0 0 0 0 0 0 0 0 0 0 0 0
0 0 0 0 0 0 0 0 0 0 0 0 0 0 0 0 0 0 0 0 0 0 0 0 0 0 0 0 0 0 0 0 0 0 0 0 0 0 0 0 0 0 0 0 0 0 0 0 0
0 0 0 0 0 0 0 0 0 0 0 0 0 0 0 0 0 0 0 0 0 0 0 0 0 0 0 0 0 0 0 0 0 0 0 0 0 0 0 0 0 0 0 0 0 0 0 0 0
0 0 0 0 0 0 0 16 23 0 0 0 0 0 0 0 0 0 0 0 0 0 0 0 0 0 0 0 0 0 0 0 0 0 0 0 0 0 0 0 0 0 1 2 3 3 2 0 0
0 0 0 1 0 0 0 59 73 0 0 0 0 0 0 0 0 0 0 0 0 0 0 0 0 0 0 0 0 0 0 0 0 0 0 0 0 0 0 0 0 3 9 11 16 9 8 7 1
0 0 0 0 0 56 2 64 113 18 0 0 0 0 0 0 0 0 0 0 0 0 0 0 0 0 0 0 0 0 0 0 0 0 0 0 0 1 2 2 3 6 10 7 15 13 23 10 20
0 0 0 0 0 20 41 72 154 5 1 0 0 0 0 0 0 0 0 0 0 0 0 0 0 0 0 0 0 0 0 0 0 0 0 0 0 0 0 3 3 5 4 4 9 11 8 17 18
0 0 0 0 8 49 62 147 133 185 24 0 0 0 0 0 0 0 0 0 0 0 0 0 0 0 0 0 0 0 0 0 0 0 0 0 0 0 1 1 3 2 2 2 3 4 4 8 10
0 0 3 26 79 70 60 102 130 74 0 0 0 0 0 0 0 0 0 0 0 0 0 0 0 0 0 0 0 0 0 0 0 0 0 0 0 0 1 4 6 4 4 2 3 5 6 7 7
0 0 3 6 40 92 16 65 121 3 0 0 0 0 0 0 0 0 0 0 0 0 0 0 0 0 0 0 0 0 0 0 0 0 0 0 0 1 6 14 13 12 10 8 9 8 9 11 11
57 89 34 72 13 84 105 121 88 0 0 0 0 0 0 0 0 0 0 0 0 0 0 0 0 0 0 0 0 0 0 0 0 0 0 0 0 0 4 11 17 15 16 18 18 14 9 9 11
61 5 93 70 65 46 71 90 125 4 0 0 2 6 0 0 0 0 0 0 0 0 0 0 0 0 0 0 0 0 0 0 0 0 0 0 0 1 5 11 15 12 14 17 13 9 8 5 13
53 54 53 48 57 206 213 86 4 0 0 2 9 1 0 0 0 0 0 0 0 0 0 0 0 0 0 0 0 0 0 0 0 0 0 0 0 0 5 9 13 16 10 10 19 14 9 11 22
44 57 42 16 9 9 20 18 0 4 1 3 0 0 0 0 0 0 0 0 0 0 0 0 0 0 0 5 1 0 0 0 0 0 0 0 0 0 0 1 7 9 10 10 9 6 7 9 17